Tracking 22836 objects as of 16-Apr-2021
HD Live streaming from Space Station
objects crossing your sky now

GSAT 30

Track GSAT 30 now!
GSAT 30 is classified as:


NORAD ID: 45026
Int'l Code: 2020-005A
Perigee: 35,776.9 km
Apogee: 35,810.5 km
Inclination: 0.1 °
Period: 1,436.1 minutes
Semi major axis: 42164 km
RCS: Unknown
Launch date: January 16, 2020
Source: India (IND)
Launch site: FRENCH GUIANA (FRGUI)
aabbcc
Your satellite tracking list
Your tracking list is empty




NASA's NSSDC Master Catalog

Two Line Element Set (TLE):
1 45026U 20005A   21106.17341003 -.00000162  00000-0  00000+0 0  9992
2 45026   0.0645  96.5101 0003987 332.6304 280.8340  1.00271900  4597
Source of the keplerian elements: AFSPC